Aeroporto :







RITROVATECI SU...

 
LOGIN :

Iscrizione | Disclaimer

   EN    FR    IT 

 









Sommario :    VFR   VFR Marginale   IFR   IFR Intensivo   IFR Molto Intensivo
Visibilità : 
Base nubi : 
>= 8 km
>= 3000ft
5 / 8 km
1000 / 3000 ft
1500m / 5 km
500 / 1000 ft
800 / 1500m
200 / 500 ft
< 800m
< 200 ft
Simboli :   Temporali  Nebbia  Neve Forte  Precipitazioni Forti  Vento > 20 kt






- Altitudine del aeroporto : 38 ft
- Codice IATA : YMH


CYMH - Mary's Harbour

ULTIMO METAR :
  • 230515Z AUTO 01004KT 340V050 9SM BKN022 BKN110 02/M01 A3006 RMK SLP183

METARs OBSOLETI :
  • 230500Z AUTO 02004KT 9SM OVC022 02/M01 A3007 RMK SLP184
  • 230400Z AUTO VRB02KT 9SM OVC022 02/M01 A3008 RMK SLP187
  • 230300Z AUTO 36002KT 9SM OVC022 01/M01 A3008 RMK SLP187

Previsioni scadute.
FIR CZQX / America del Nord



MetMap, La meteo Aeronautica in un colpo d'occhio ! - Copyright ORBIFLY Dicembre 2007 - Disclaimer

ORBIFLY MET'MAP TEAM :

Programmazione e sviluppo : Alexandra Zaïnal
Concezione : Baudouin d'Aumeries
Aiuto per la programmazione : Marc-Olivier Méhu
Supporto tecnico e logistico : Manuel Goepfert
Aiuto per la traduzione : Arnaldo La Scala

Contatto : metmap@orbifly.com




FONTI E CREDITI :

   NOAA